,,Stat6,,Stat2,,Stat8,,Stat9,,Stat10,,Wind1,,Wind1,
time,status,PA1M_AVG,status,PR1M_SUM,status,RH1M_AVG,status,SR1M_AVG,status,TA1M_AVG,status,W1dAve1m,status,W1sAve1m,
2007-07-18, 00:00:00,VALID,917.034,VALID,0,VALID,100,VALID,-0.135847,VALID,20.2612,VALID,75,VALID,0.823847,
2007-07-18, 00:01:00,VALID,917.04,VALID,0,VALID,100,VALID,-0.152827,VALID,20.2485,VALID,71,VALID,0.895898,
2007-07-18, 00:02:00,VALID,917.024,VALID,0,VALID,100,VALID,-0.169808,VALID,20.2425,VALID,65,VALID,0.894792,
2007-07-18, 00:03:00,VALID,917.02,VALID,0,VALID,100,VALID,-0.152827,VALID,20.2452,VALID,58,VALID,0.769832,
2007-07-18, 00:04:00,VALID,917.027,VALID,0,VALID,100,VALID,-0.152827,VALID,20.249,VALID,56,VALID,0.809832,
2007-07-18, 00:05:00,VALID,917.022,VALID,0,VALID,100,VALID,-0.169808,VALID,20.242,VALID,56,VALID,0.736852,
2007-07-18, 00:06:00,VALID,917.025,VALID,0,VALID,100,VALID,-0.118866,VALID,20.236,VALID,56,VALID,0.529615,
2007-07-18, 00:07:00,VALID,917.023,VALID,0,VALID,100,VALID,-0.169808,VALID,20.2222,VALID,56,VALID,0.57832,
2007-07-18, 00:08:00,VALID,917.022,VALID,0,VALID,100,VALID,-0.186789,VALID,20.209,VALID,56,VALID,0.353993,
2007-07-18, 00:09:00,VALID,917.027,VALID,0,VALID,100,VALID,-0.118866,VALID,20.1963,VALID,56,VALID,0.189098,
2007-07-18, 00:10:00,VALID,917.029,VALID,0,VALID,100,VALID,-0.101885,VALID,20.1698,VALID,56,VALID,0.165396,
2007-07-18, 00:11:00,VALID,917.04,VALID,0,VALID,100,VALID,-0.118866,VALID,20.1538,VALID,56,VALID,0.250372,
2007-07-18, 00:12:00,VALID,917.047,VALID,0,VALID,100,VALID,-0.101885,VALID,20.1409,VALID,56,VALID,0.520894,
2007-07-18, 00:13:00,VALID,917.067,VALID,0,VALID,100,VALID,-0.135847,VALID,20.1414,VALID,66,VALID,0.83939,
2007-07-18, 00:14:00,VALID,917.072,VALID,0,VALID,100,VALID,-0.118866,VALID,20.1349,VALID,69,VALID,0.901989,
2007-07-18, 00:15:00,VALID,917.055,VALID,0,VALID,100,VALID,-0.0509425,VALID,20.1263,VALID,72,VALID,1.10764,
2007-07-18, 00:16:00,VALID,917.045,VALID,0,VALID,100,VALID,0,VALID,20.1396,VALID,86,VALID,1.16815,
2007-07-18, 00:17:00,VALID,917.021,VALID,0,VALID,100,VALID,0,VALID,20.1136,VALID,89,VALID,0.878811,
2007-07-18, 00:18:00,VALID,917.002,VALID,0,VALID,100,VALID,-0.0339617,VALID,20.1039,VALID,104,VALID,0.825408,
2007-07-18, 00:19:00,VALID,916.98,VALID,0,VALID,100,VALID,-0.0679233,VALID,20.0879,VALID,107,VALID,0.90067,
2007-07-18, 00:20:00,VALID,916.948,VALID,0,VALID,100,VALID,-0.0169808,VALID,20.0714,VALID,115,VALID,0.738917,
2007-07-18, 00:21:00,VALID,916.916,VALID,0,VALID,100,VALID,-0.0679233,VALID,20.0422,VALID,118,VALID,0.774609,
2007-07-18, 00:22:00,VALID,916.892,VALID,0,VALID,100,VALID,-0.0339617,VALID,20.0225,VALID,123,VALID,0.562314,
2007-07-18, 00:23:00,VALID,916.869,VALID,0,VALID,100,VALID,-0.0339617,VALID,20.0225,VALID,123,VALID,0.295703,
2007-07-18, 00:24:00,VALID,916.872,VALID,0,VALID,100,VALID,-0.0679233,VALID,20.0168,VALID,124,VALID,0.387251,
2007-07-18, 00:25:00,VALID,916.859,VALID,0,VALID,100,VALID,-0.0169808,VALID,20.003,VALID,145,VALID,0.462054,
2007-07-18, 00:26:00,VALID,916.83,VALID,0,VALID,100,VALID,-0.0169808,VALID,20.0033,VALID,159,VALID,0.682231,
2007-07-18, 00:27:00,VALID,916.817,VALID,0,VALID,100,VALID,-0.0169808,VALID,20.0133,VALID,166,VALID,0.523256,
2007-07-18, 00:28:00,VALID,916.831,VALID,0,VALID,100,VALID,0,VALID,20.0168,VALID,159,VALID,0.491097,
2007-07-18, 00:29:00,VALID,916.819,VALID,0,VALID,100,VALID,-0.0509425,VALID,20.0098,VALID,148,VALID,0.749805,
2007-07-18, 00:30:00,VALID,916.82,VALID,0,VALID,100,VALID,-0.0509425,VALID,20.0165,VALID,137,VALID,0.894259,
2007-07-18, 00:31:00,VALID,916.807,VALID,0,VALID,100,VALID,-0.0849042,VALID,20.0038,VALID,144,VALID,0.804155,
2007-07-18, 00:32:00,VALID,916.803,VALID,0,VALID,100,VALID,-0.0509425,VALID,20.0001,VALID,144,VALID,0.886433,
2007-07-18, 00:33:00,VALID,916.771,VALID,0,VALID,100,VALID,-0.0169808,VALID,20.0093,VALID,144,VALID,1.00305,
2007-07-18, 00:34:00,VALID,916.743,VALID,0,VALID,100,VALID,-0.0339617,VALID,20.0195,VALID,136,VALID,1.24512,
2007-07-18, 00:35:00,VALID,916.724,VALID,0,VALID,100,VALID,-0.0509425,VALID,20.0225,VALID,128,VALID,1.31827,
2007-07-18, 00:36:00,VALID,916.688,VALID,0,VALID,100,VALID,-0.0339617,VALID,20.0155,VALID,128,VALID,1.09517,
2007-07-18, 00:37:00,VALID,916.672,VALID,0,VALID,100,VALID,-0.0169808,VALID,20.0095,VALID,139,VALID,1.07617,
2007-07-18, 00:38:00,VALID,916.651,VALID,0,VALID,100,VALID,-0.0509425,VALID,20.0003,VALID,136,VALID,1.06402,
2007-07-18, 00:39:00,VALID,916.635,VALID,0,VALID,100,VALID,-0.0679233,VALID,20.0098,VALID,141,VALID,1.141,
2007-07-18, 00:40:00,VALID,916.657,VALID,0,VALID,100,VALID,-0.0509425,VALID,20.0095,VALID,141,VALID,0.564931,
2007-07-18, 00:41:00,VALID,916.658,VALID,0,VALID,100,VALID,-0.0169808,VALID,20.0098,VALID,142,VALID,0.870206,
2007-07-18, 00:42:00,VALID,916.676,VALID,0,VALID,100,VALID,-0.0339617,VALID,20.0063,VALID,141,VALID,0.557706,
2007-07-18, 00:43:00,VALID,916.666,VALID,0,VALID,100,VALID,-0.0339617,VALID,20.0001,VALID,144,VALID,0.537972,
2007-07-18, 00:44:00,VALID,916.671,VALID,0,VALID,100,VALID,-0.0169808,VALID,20.0093,VALID,169,VALID,0.541903,
2007-07-18, 00:45:00,VALID,916.65,VALID,0,VALID,100,VALID,-0.101885,VALID,20.0235,VALID,169,VALID,0.285069,
2007-07-18, 00:46:00,VALID,916.655,VALID,0,VALID,100,VALID,-0.0679233,VALID,20.02,VALID,171,VALID,0.224023,
2007-07-18, 00:47:00,VALID,916.642,VALID,0,VALID,100,VALID,-0.0849042,VALID,20.0163,VALID,175,VALID,0.17024,
2007-07-18, 00:48:00,VALID,916.634,VALID,0,VALID,100,VALID,-0.0679233,VALID,20.0268,VALID,175,VALID,0.0957031,
2007-07-18, 00:49:00,VALID,916.641,VALID,0,VALID,100,VALID,-0.0679233,VALID,20.02,VALID,175,VALID,0.00260417,
2007-07-18, 00:50:00,VALID,916.642,VALID,0,VALID,100,VALID,-0.0849042,VALID,20.0235,VALID,175,VALID,0.0439453,
2007-07-18, 00:51:00,VALID,916.645,VALID,0,VALID,100,VALID,-0.0849042,VALID,20.0168,VALID,175,VALID,0.0408381,
2007-07-18, 00:52:00,VALID,916.645,VALID,0,VALID,100,VALID,-0.101885,VALID,20.0238,VALID,175,VALID,0,
2007-07-18, 00:53:00,VALID,916.649,VALID,0,VALID,100,VALID,-0.0849042,VALID,20.0135,VALID,245,VALID,0.330602,
2007-07-18, 00:54:00,VALID,916.659,VALID,0,VALID,100,VALID,-0.101885,VALID,19.9976,VALID,283,VALID,0.525521,
2007-07-18, 00:55:00,VALID,916.674,VALID,0,VALID,100,VALID,-0.0849042,VALID,19.9973,VALID,289,VALID,0.775073,
2007-07-18, 00:56:00,VALID,916.682,VALID,0,VALID,100,VALID,-0.0849042,VALID,20.0038,VALID,292,VALID,0.802144,
2007-07-18, 00:57:00,VALID,916.686,VALID,0,VALID,100,VALID,-0.0339617,VALID,20.0135,VALID,286,VALID,0.784412,
2007-07-18, 00:58:00,VALID,916.678,VALID,0,VALID,100,VALID,-0.0849042,VALID,20.01,VALID,286,VALID,0.542333,
2007-07-18, 00:59:00,VALID,916.682,VALID,0,VALID,100,VALID,-0.0849042,VALID,20.0001,VALID,286,VALID,0.28941,
2007-07-18, 01:00:00,VALID,916.672,VALID,0,VALID,100,VALID,-0.101885,VALID,20.01,VALID,286,VALID,0.0102163,
2007-07-18, 01:01:00,VALID,916.667,VALID,0,VALID,100,VALID,-0.0849042,VALID,20.0233,VALID,286,VALID,0.244496,
2007-07-18, 01:02:00,VALID,916.646,VALID,0,VALID,100,VALID,-0.0849042,VALID,20.0263,VALID,286,VALID,0.167878,
2007-07-18, 01:03:00,VALID,916.64,VALID,0,VALID,100,VALID,-0.101885,VALID,20.0392,VALID,286,VALID,0.161519,
2007-07-18, 01:04:00,VALID,916.644,VALID,0,VALID,100,VALID,-0.101885,VALID,20.0587,VALID,286,VALID,0.132068,
2007-07-18, 01:05:00,VALID,916.639,VALID,0,VALID,100,VALID,-0.0849042,VALID,20.0555,VALID,286,VALID,0.0408203,
2007-07-18, 01:06:00,VALID,916.66,VALID,0,VALID,100,VALID,-0.0679233,VALID,20.0552,VALID,286,VALID,0.0448289,
2007-07-18, 01:07:00,VALID,916.678,VALID,0,VALID,100,VALID,-0.0339617,VALID,20.055,VALID,286,VALID,0.208651,
2007-07-18, 01:08:00,VALID,916.669,VALID,0,VALID,100,VALID,-0.0509425,VALID,20.0712,VALID,286,VALID,0.182884,
2007-07-18, 01:09:00,VALID,916.661,VALID,0,VALID,100,VALID,-0.0849042,VALID,20.0712,VALID,282,VALID,0.389915,
2007-07-18, 01:10:00,VALID,916.676,VALID,0,VALID,100,VALID,-0.0679233,VALID,20.0939,VALID,280,VALID,0.133176,
2007-07-18, 01:11:00,VALID,916.668,VALID,0,VALID,100,VALID,-0.0679233,VALID,20.1001,VALID,280,VALID,0.0024858,
2007-07-18, 01:12:00,VALID,916.673,VALID,0,VALID,100,VALID,-0.0849042,VALID,20.1204,VALID,280,VALID,0,
2007-07-18, 01:13:00,VALID,916.677,VALID,0,VALID,100,VALID,-0.0849042,VALID,20.1368,VALID,285,VALID,0.0984003,
2007-07-18, 01:14:00,VALID,916.676,VALID,0,VALID,100,VALID,-0.0849042,VALID,20.1688,VALID,298,VALID,0.321221,
2007-07-18, 01:15:00,VALID,916.693,VALID,0,VALID,100,VALID,0,VALID,20.2037,VALID,325,VALID,0.388247,
2007-07-18, 01:16:00,VALID,916.685,VALID,0,VALID,100,VALID,0.0509425,VALID,20.2129,VALID,332,VALID,0.292361,
2007-07-18, 01:17:00,VALID,916.694,VALID,0,VALID,100,VALID,0.0509425,VALID,20.1835,VALID,334,VALID,0.319568,
2007-07-18, 01:18:00,VALID,916.706,VALID,0,VALID,100,VALID,0.0169808,VALID,20.1675,VALID,347,VALID,0.598028,
2007-07-18, 01:19:00,VALID,916.72,VALID,0,VALID,100,VALID,0.0169808,VALID,20.1548,VALID,47,VALID,0.877418,
2007-07-18, 01:20:00,VALID,916.714,VALID,0,VALID,100,VALID,0.0509425,VALID,20.1515,VALID,40,VALID,0.949033,
2007-07-18, 01:21:00,VALID,916.703,VALID,0,VALID,100,VALID,0.0679233,VALID,20.141,VALID,43,VALID,0.896763,
2007-07-18, 01:22:00,VALID,916.696,VALID,0,VALID,100,VALID,0.0339617,VALID,20.141,VALID,40,VALID,0.967297,
2007-07-18, 01:23:00,VALID,916.696,VALID,0,VALID,100,VALID,0.0339617,VALID,20.1475,VALID,28,VALID,0.697545,
2007-07-18, 01:24:00,VALID,916.702,VALID,0,VALID,100,VALID,0.0169808,VALID,20.1575,VALID,33,VALID,0.431597,
2007-07-18, 01:25:00,VALID,916.695,VALID,0,VALID,100,VALID,0,VALID,20.181,VALID,33,VALID,0.0750762,
2007-07-18, 01:26:00,VALID,916.685,VALID,0,VALID,100,VALID,0,VALID,20.1807,VALID,33,VALID,0,
2007-07-18, 01:27:00,VALID,916.684,VALID,0,VALID,100,VALID,0.0339617,VALID,20.2035,VALID,33,VALID,0,
2007-07-18, 01:28:00,VALID,916.692,VALID,0,VALID,100,VALID,0.0169808,VALID,20.2067,VALID,33,VALID,0,
2007-07-18, 01:29:00,VALID,916.687,VALID,0,VALID,100,VALID,0.0339617,VALID,20.2167,VALID,33,VALID,0,
2007-07-18, 01:30:00,VALID,916.68,VALID,0,VALID,100,VALID,-0.0849042,VALID,20.2075,VALID,34,VALID,0.180729,
2007-07-18, 01:31:00,VALID,916.693,VALID,0,VALID,100,VALID,-0.0509425,VALID,20.192,VALID,45,VALID,0.653702,
2007-07-18, 01:32:00,VALID,916.71,VALID,0,VALID,100,VALID,-0.0679233,VALID,20.1623,VALID,60,VALID,0.903274,
2007-07-18, 01:33:00,VALID,916.689,VALID,0,VALID,100,VALID,-0.0679233,VALID,20.1361,VALID,68,VALID,0.809896,
2007-07-18, 01:34:00,VALID,916.688,VALID,0,VALID,100,VALID,-0.0509425,VALID,20.1039,VALID,74,VALID,0.564546,
2007-07-18, 01:35:00,VALID,916.661,VALID,0,VALID,100,VALID,-0.101885,VALID,20.0817,VALID,73,VALID,0.505394,
2007-07-18, 01:36:00,VALID,916.66,VALID,0,VALID,100,VALID,-0.101885,VALID,20.0625,VALID,73,VALID,0.408854,
2007-07-18, 01:37:00,VALID,916.628,VALID,0,VALID,100,VALID,-0.0849042,VALID,20.0357,VALID,73,VALID,0.662202,
2007-07-18, 01:38:00,VALID,916.61,VALID,0,VALID,100,VALID,-0.0339617,VALID,20.019,VALID,73,VALID,0.619855,
2007-07-18, 01:39:00,VALID,916.575,VALID,0,VALID,100,VALID,-0.0339617,VALID,20.003,VALID,90,VALID,0.81994,
2007-07-18, 01:40:00,VALID,916.564,VALID,0,VALID,100,VALID,-0.0339617,VALID,19.9868,VALID,126,VALID,0.734566,
2007-07-18, 01:41:00,VALID,916.538,VALID,0,VALID,100,VALID,-0.0679233,VALID,19.9708,VALID,123,VALID,0.654018,
2007-07-18, 01:42:00,VALID,916.506,VALID,0,VALID,100,VALID,-0.101885,VALID,19.9514,VALID,99,VALID,0.630907,
2007-07-18, 01:43:00,VALID,916.496,VALID,0,VALID,100,VALID,-0.0849042,VALID,19.9444,VALID,99,VALID,0.287574,
2007-07-18, 01:44:00,VALID,916.469,VALID,0,VALID,100,VALID,-0.0509425,VALID,19.9217,VALID,99,VALID,0.284489,
2007-07-18, 01:45:00,VALID,916.456,VALID,0,VALID,100,VALID,-0.0169808,VALID,19.9227,VALID,99,VALID,0.279447,
2007-07-18, 01:46:00,VALID,916.456,VALID,0,VALID,100,VALID,-0.0509425,VALID,19.9092,VALID,99,VALID,0.296675,
2007-07-18, 01:47:00,VALID,916.453,VALID,0,VALID,100,VALID,-0.0509425,VALID,19.8995,VALID,98,VALID,0.858073,
2007-07-18, 01:48:00,VALID,916.436,VALID,0,VALID,100,VALID,-0.0339617,VALID,19.8862,VALID,92,VALID,0.846294,
2007-07-18, 01:49:00,VALID,916.426,VALID,0,VALID,100,VALID,-0.0169808,VALID,19.8735,VALID,94,VALID,0.789807,
2007-07-18, 01:50:00,VALID,916.383,VALID,0,VALID,100,VALID,-0.0679233,VALID,19.8643,VALID,113,VALID,1.02255,
2007-07-18, 01:51:00,VALID,916.353,VALID,0,VALID,100,VALID,-0.0169808,VALID,19.8408,VALID,109,VALID,0.918146,
2007-07-18, 01:52:00,VALID,916.311,VALID,0,VALID,100,VALID,-0.0509425,VALID,19.8311,VALID,113,VALID,0.87035,
2007-07-18, 01:53:00,VALID,916.264,VALID,0,VALID,100,VALID,-0.0169808,VALID,19.8376,VALID,112,VALID,0.874023,
2007-07-18, 01:54:00,VALID,916.23,VALID,0,VALID,100,VALID,-0.0679233,VALID,19.8353,VALID,116,VALID,0.630996,
2007-07-18, 01:55:00,VALID,916.186,VALID,0,VALID,100,VALID,-0.0679233,VALID,19.8321,VALID,130,VALID,0.644354,
2007-07-18, 01:56:00,VALID,916.163,VALID,0,VALID,100,VALID,-0.0169808,VALID,19.8251,VALID,137,VALID,0.613104,
2007-07-18, 01:57:00,VALID,916.148,VALID,0,VALID,100,VALID,-0.0679233,VALID,19.8256,VALID,139,VALID,0.932292,
2007-07-18, 01:58:00,VALID,916.133,VALID,0,VALID,100,VALID,-0.0509425,VALID,19.8126,VALID,141,VALID,1.07475,
2007-07-18, 01:59:00,VALID,916.107,VALID,0,VALID,100,VALID,-0.0679233,VALID,19.7832,VALID,141,VALID,1.00502,
2007-07-18, 02:00:00,VALID,916.091,VALID,0,VALID,100,VALID,-0.101885,VALID,19.7667,VALID,119,VALID,0.660866,
2007-07-18, 02:01:00,VALID,916.08,VALID,0,VALID,100,VALID,-0.0169808,VALID,19.7502,VALID,135,VALID,1.38411,
2007-07-18, 02:02:00,VALID,916.06,VALID,0,VALID,100,VALID,0,VALID,19.7405,VALID,131,VALID,1.1276,
2007-07-18, 02:03:00,VALID,916.042,VALID,0,VALID,100,VALID,-0.0169808,VALID,19.74,VALID,132,VALID,1.02707,
2007-07-18, 02:04:00,VALID,916.032,VALID,0,VALID,100,VALID,-0.0339617,VALID,19.737,VALID,131,VALID,0.939024,
2007-07-18, 02:05:00,VALID,916.016,VALID,0,VALID,100,VALID,0,VALID,19.7537,VALID,144,VALID,0.949777,
2007-07-18, 02:06:00,VALID,915.994,VALID,0,VALID,100,VALID,-0.0169808,VALID,19.747,VALID,132,VALID,0.839844,
2007-07-18, 02:07:00,VALID,915.991,VALID,0,VALID,100,VALID,0,VALID,19.7402,VALID,141,VALID,1.0456,
2007-07-18, 02:08:00,VALID,915.985,VALID,0,VALID,100,VALID,-0.0339617,VALID,19.734,VALID,123,VALID,0.951637,
2007-07-18, 02:09:00,VALID,915.992,VALID,0,VALID,100,VALID,-0.0169808,VALID,19.7275,VALID,115,VALID,0.45625,
2007-07-18, 02:10:00,VALID,915.984,VALID,0,VALID,100,VALID,0,VALID,19.7342,VALID,133,VALID,0.211648,
2007-07-18, 02:11:00,VALID,915.983,VALID,0,VALID,100,VALID,-0.0339617,VALID,19.7243,VALID,145,VALID,0.867746,
2007-07-18, 02:12:00,VALID,915.965,VALID,0,VALID,100,VALID,-0.0509425,VALID,19.7173,VALID,136,VALID,0.498785,
2007-07-18, 02:13:00,VALID,915.954,VALID,0,VALID,100,VALID,-0.0169808,VALID,19.7245,VALID,136,VALID,0.120924,
2007-07-18, 02:14:00,VALID,915.929,VALID,0,VALID,100,VALID,-0.0169808,VALID,19.7173,VALID,140,VALID,0.480664,
2007-07-18, 02:15:00,VALID,915.904,VALID,0,VALID,100,VALID,0,VALID,19.714,VALID,144,VALID,0.13899,
2007-07-18, 02:16:00,VALID,915.885,VALID,0,VALID,100,VALID,-0.0169808,VALID,19.7045,VALID,149,VALID,0.282813,
2007-07-18, 02:17:00,VALID,915.862,VALID,0,VALID,100,VALID,-0.0509425,VALID,19.705,VALID,164,VALID,0.0297256,
2007-07-18, 02:18:00,VALID,915.846,VALID,0,VALID,100,VALID,0,VALID,19.6948,VALID,164,VALID,0,
2007-07-18, 02:19:00,VALID,915.817,VALID,0,VALID,100,VALID,-0.0169808,VALID,19.6818,VALID,164,VALID,0,
2007-07-18, 02:20:00,VALID,915.806,VALID,0,VALID,100,VALID,0.0169808,VALID,19.6816,VALID,164,VALID,0.122869,
2007-07-18, 02:21:00,VALID,915.796,VALID,0,VALID,100,VALID,-0.0339617,VALID,19.6753,VALID,164,VALID,0.319957,
2007-07-18, 02:22:00,VALID,915.787,VALID,0,VALID,100,VALID,-0.0849042,VALID,19.6656,VALID,164,VALID,0.291903,
2007-07-18, 02:23:00,VALID,915.766,VALID,0,VALID,100,VALID,0,VALID,19.6559,VALID,164,VALID,0.050686,
2007-07-18, 02:24:00,VALID,915.779,VALID,0,VALID,100,VALID,-0.0339617,VALID,19.6459,VALID,164,VALID,0.0786458,
2007-07-18, 02:25:00,VALID,915.766,VALID,0,VALID,100,VALID,-0.0339617,VALID,19.6362,VALID,164,VALID,0.0487351,
2007-07-18, 02:26:00,VALID,915.798,VALID,0,VALID,100,VALID,0.0169808,VALID,19.6394,VALID,166,VALID,0.0423018,
2007-07-18, 02:27:00,VALID,915.818,VALID,0,VALID,100,VALID,0,VALID,19.6329,VALID,179,VALID,0.16915,
2007-07-18, 02:28:00,VALID,915.84,VALID,0,VALID,100,VALID,-0.0509425,VALID,19.6264,VALID,179,VALID,0.380814,
2007-07-18, 02:29:00,VALID,915.848,VALID,0,VALID,100,VALID,0,VALID,19.6329,VALID,192,VALID,0.47093,
2007-07-18, 02:30:00,VALID,915.872,VALID,0,VALID,100,VALID,-0.0509425,VALID,19.6234,VALID,204,VALID,0.0719866,
2007-07-18, 02:31:00,VALID,915.878,VALID,0,VALID,100,VALID,-0.0339617,VALID,19.6427,VALID,201,VALID,0.305596,
2007-07-18, 02:32:00,VALID,915.881,VALID,0,VALID,100,VALID,-0.0339617,VALID,19.6461,VALID,199,VALID,0.355196,
2007-07-18, 02:33:00,VALID,915.888,VALID,0,VALID,100,VALID,-0.0509425,VALID,19.6427,VALID,195,VALID,0.152166,
2007-07-18, 02:34:00,VALID,915.868,VALID,0,VALID,100,VALID,-0.0509425,VALID,19.6397,VALID,174,VALID,0.506669,
2007-07-18, 02:35:00,VALID,915.892,VALID,0,VALID,100,VALID,-0.0679233,VALID,19.6269,VALID,152,VALID,0.706364,
2007-07-18, 02:36:00,VALID,915.901,VALID,0,VALID,100,VALID,-0.0169808,VALID,19.6302,VALID,143,VALID,0.522507,
2007-07-18, 02:37:00,VALID,915.931,VALID,0,VALID,100,VALID,-0.0339617,VALID,19.6297,VALID,154,VALID,0.627046,
2007-07-18, 02:38:00,VALID,915.957,VALID,0,VALID,100,VALID,-0.0169808,VALID,19.6264,VALID,152,VALID,0.484375,
2007-07-18, 02:39:00,VALID,915.964,VALID,0,VALID,100,VALID,-0.0509425,VALID,19.6204,VALID,156,VALID,0.698933,
2007-07-18, 02:40:00,VALID,915.968,VALID,0,VALID,100,VALID,-0.0169808,VALID,19.607,VALID,154,VALID,0.754764,
2007-07-18, 02:41:00,VALID,915.958,VALID,0,VALID,100,VALID,-0.0679233,VALID,19.6167,VALID,160,VALID,0.382813,
2007-07-18, 02:42:00,VALID,915.961,VALID,0,VALID,100,VALID,-0.0679233,VALID,19.6267,VALID,155,VALID,0.556176,
2007-07-18, 02:43:00,VALID,915.962,VALID,0,VALID,100,VALID,-0.0339617,VALID,19.6332,VALID,147,VALID,0.455983,
2007-07-18, 02:44:00,VALID,915.957,VALID,0,VALID,100,VALID,-0.0849042,VALID,19.6364,VALID,155,VALID,0.643169,
2007-07-18, 02:45:00,VALID,915.975,VALID,0,VALID,100,VALID,0,VALID,19.6267,VALID,149,VALID,0.579215,
2007-07-18, 02:46:00,VALID,915.998,VALID,0,VALID,100,VALID,-0.0169808,VALID,19.6264,VALID,148,VALID,1.11868,
2007-07-18, 02:47:00,VALID,916.012,VALID,0,VALID,100,VALID,0,VALID,19.6329,VALID,148,VALID,0.946911,
2007-07-18, 02:48:00,VALID,916.01,VALID,0,VALID,100,VALID,-0.0169808,VALID,19.6491,VALID,135,VALID,0.901526,
2007-07-18, 02:49:00,VALID,916.007,VALID,0,VALID,100,VALID,-0.0169808,VALID,19.6524,VALID,119,VALID,0.821715,
2007-07-18, 02:50:00,VALID,916.024,VALID,0,VALID,100,VALID,-0.0169808,VALID,19.6659,VALID,103,VALID,1.07645,
2007-07-18, 02:51:00,VALID,916.049,VALID,0,VALID,100,VALID,-0.0339617,VALID,19.6559,VALID,106,VALID,1.06595,
2007-07-18, 02:52:00,VALID,916.052,VALID,0,VALID,100,VALID,-0.0339617,VALID,19.6758,VALID,127,VALID,0.967882,
2007-07-18, 02:53:00,VALID,916.065,VALID,0,VALID,100,VALID,-0.0679233,VALID,19.6721,VALID,105,VALID,0.894804,
2007-07-18, 02:54:00,VALID,916.065,VALID,0,VALID,100,VALID,-0.0339617,VALID,19.6791,VALID,124,VALID,0.789063,
2007-07-18, 02:55:00,VALID,916.059,VALID,0,VALID,100,VALID,-0.0509425,VALID,19.6913,VALID,120,VALID,1.3641,
2007-07-18, 02:56:00,VALID,916.05,VALID,0,VALID,100,VALID,-0.0509425,VALID,19.728,VALID,111,VALID,1.26395,
2007-07-18, 02:57:00,VALID,916.043,VALID,0,VALID,100,VALID,-0.0849042,VALID,19.734,VALID,118,VALID,0.995236,
2007-07-18, 02:58:00,VALID,916.048,VALID,0,VALID,100,VALID,-0.0339617,VALID,19.7467,VALID,110,VALID,0.675,
2007-07-18, 02:59:00,VALID,916.05,VALID,0,VALID,100,VALID,-0.0169808,VALID,19.7632,VALID,102,VALID,1.4027,
2007-07-18, 03:00:00,VALID,916.047,VALID,0,VALID,100,VALID,-0.0339617,VALID,19.7829,VALID,106,VALID,1.34976,
2007-07-18, 03:01:00,VALID,916.047,VALID,0,VALID,100,VALID,-0.0509425,VALID,19.7692,VALID,106,VALID,1.63403,
2007-07-18, 03:02:00,VALID,916.028,VALID,0,VALID,100,VALID,-0.0679233,VALID,19.7759,VALID,112,VALID,1.45484,
2007-07-18, 03:03:00,VALID,916.017,VALID,0,VALID,100,VALID,-0.0339617,VALID,19.7889,VALID,120,VALID,1.07413,
2007-07-18, 03:04:00,VALID,915.985,VALID,0,VALID,100,VALID,-0.0509425,VALID,19.7951,VALID,136,VALID,1.01488,
2007-07-18, 03:05:00,VALID,915.975,VALID,0,VALID,100,VALID,-0.0679233,VALID,19.7991,VALID,137,VALID,1.16521,
2007-07-18, 03:06:00,VALID,915.978,VALID,0,VALID,100,VALID,-0.0339617,VALID,19.7889,VALID,138,VALID,1.13002,
2007-07-18, 03:07:00,VALID,915.952,VALID,0,VALID,100,VALID,-0.0339617,VALID,19.8019,VALID,155,VALID,0.827753,
2007-07-18, 03:08:00,VALID,915.931,VALID,0,VALID,100,VALID,-0.0169808,VALID,19.7986,VALID,125,VALID,1.0451,
2007-07-18, 03:09:00,VALID,915.908,VALID,0,VALID,100,VALID,-0.0509425,VALID,19.7954,VALID,125,VALID,0.898624,
2007-07-18, 03:10:00,VALID,915.874,VALID,0,VALID,100,VALID,-0.0509425,VALID,19.8086,VALID,105,VALID,0.376598,
2007-07-18, 03:11:00,VALID,915.827,VALID,0,VALID,100,VALID,0,VALID,19.8119,VALID,120,VALID,0.849702,
2007-07-18, 03:12:00,VALID,915.776,VALID,0,VALID,100,VALID,0,VALID,19.8079,VALID,93,VALID,0.380394,
2007-07-18, 03:13:00,VALID,915.748,VALID,0,VALID,100,VALID,-0.0169808,VALID,19.7986,VALID,117,VALID,0.840625,
2007-07-18, 03:14:00,VALID,915.714,VALID,0,VALID,100,VALID,-0.0169808,VALID,19.7824,VALID,101,VALID,0.880087,
2007-07-18, 03:15:00,VALID,915.707,VALID,0,VALID,100,VALID,-0.0339617,VALID,19.7497,VALID,112,VALID,0.93022,
2007-07-18, 03:16:00,VALID,915.69,VALID,0,VALID,100,VALID,0,VALID,19.7203,VALID,112,VALID,0.824124,
2007-07-18, 03:17:00,VALID,915.696,VALID,0,VALID,100,VALID,0,VALID,19.714,VALID,101,VALID,0.520647,
2007-07-18, 03:18:00,VALID,915.697,VALID,0,VALID,100,VALID,-0.0169808,VALID,19.6981,VALID,105,VALID,0.299782,
2007-07-18, 03:19:00,VALID,915.715,VALID,0,VALID,100,VALID,-0.101885,VALID,19.6881,VALID,99,VALID,0.556593,
2007-07-18, 03:20:00,VALID,915.721,VALID,0,VALID,100,VALID,-0.0509425,VALID,19.6719,VALID,137,VALID,0.434832,
2007-07-18, 03:21:00,VALID,915.735,VALID,0,VALID,100,VALID,-0.0169808,VALID,19.6561,VALID,125,VALID,0.497396,
2007-07-18, 03:22:00,VALID,915.743,VALID,0,VALID,100,VALID,-0.0339617,VALID,19.6402,VALID,111,VALID,0.804874,
2007-07-18, 03:23:00,VALID,915.728,VALID,0,VALID,100,VALID,-0.0509425,VALID,19.607,VALID,97,VALID,0.846608,
2007-07-18, 03:24:00,VALID,915.719,VALID,0,VALID,100,VALID,-0.0509425,VALID,19.614,VALID,90,VALID,0.721726,
2007-07-18, 03:25:00,VALID,915.719,VALID,0,VALID,100,VALID,-0.0509425,VALID,19.6042,VALID,64,VALID,0.981831,
2007-07-18, 03:26:00,VALID,915.7,VALID,0,VALID,100,VALID,-0.0509425,VALID,19.5688,VALID,54,VALID,1.21742,
2007-07-18, 03:27:00,VALID,915.677,VALID,0,VALID,100,VALID,-0.0849042,VALID,19.5296,VALID,52,VALID,1.2603,
2007-07-18, 03:28:00,VALID,915.654,VALID,0,VALID,100,VALID,-0.0679233,VALID,19.5109,VALID,45,VALID,1.07378,
2007-07-18, 03:29:00,VALID,915.632,VALID,0,VALID,100,VALID,-0.0849042,VALID,19.5201,VALID,37,VALID,1.21944,
2007-07-18, 03:30:00,VALID,915.617,VALID,0,VALID,100,VALID,0.101885,VALID,19.5149,VALID,44,VALID,1.31321,
2007-07-18, 03:31:00,VALID,915.603,VALID,0,VALID,100,VALID,0.0509425,VALID,19.4984,VALID,64,VALID,1.123,
2007-07-18, 03:32:00,VALID,915.604,VALID,0,VALID,100,VALID,0.0679233,VALID,19.5017,VALID,54,VALID,1.17862,
2007-07-18, 03:33:00,VALID,915.583,VALID,0,VALID,100,VALID,0.0849042,VALID,19.5179,VALID,64,VALID,1.14789,
2007-07-18, 03:34:00,VALID,915.587,VALID,0,VALID,100,VALID,0.0679233,VALID,19.5244,VALID,54,VALID,0.85,
2007-07-18, 03:35:00,VALID,915.574,VALID,0,VALID,100,VALID,0.0509425,VALID,19.5408,VALID,71,VALID,1.18192,
2007-07-18, 03:36:00,VALID,915.572,VALID,0,VALID,100,VALID,0.0339617,VALID,19.5568,VALID,62,VALID,0.878057,
2007-07-18, 03:37:00,VALID,915.565,VALID,0,VALID,100,VALID,0.0679233,VALID,19.573,VALID,48,VALID,0.714931,
2007-07-18, 03:38:00,VALID,915.571,VALID,0,VALID,100,VALID,0.101885,VALID,19.5893,VALID,36,VALID,0.965278,
2007-07-18, 03:39:00,VALID,915.565,VALID,0,VALID,100,VALID,0.0849042,VALID,19.5895,VALID,63,VALID,0.421684,